Wind_Speed
4 4 3 3 3 2 1 2 2 2 1 1 1 2 2 2 3 2 3 3 3 2 2 2 3 3 4 4 4 5 4 5 6 6 6 6 6 6 6 6 6 6 6
4 3 2 3 3 2 2 2 2 2 2 2 2 2 2 3 3 3 4 4 3 3 2 2 3 3 4 4 4 4 5 5 5 5 6 6 6 7 7 8 8 8 7
3 2 2 3 3 3 2 2 3 3 3 3 3 3 4 3 4 4 4 4 2 3 2 3 3 3 3 4 4 4 5 6 6 6 6 6 7 8 8 8 8 8 9
4 3 3 3 3 3 3 3 2 3 4 3 3 4 4 4 4 4 4 2 2 3 3 3 3 3 3 4 4 4 4 5 5 5 5 6 6 7 7 7 8 8 8
4 4 4 3 3 3 3 3 3 4 4 3 3 4 5 5 4 4 3 3 3 3 3 3 4 3 4 4 4 4 4 5 4 5 5 5 6 6 7 7 7 7 8
4 5 4 4 3 3 3 4 4 3 4 3 3 4 5 5 4 4 4 4 3 3 4 4 4 3 4 5 5 4 4 4 4 4 5 5 6 6 8 8 8 7 8
4 5 4 3 4 4 4 4 4 4 5 4 4 4 5 5 4 4 4 4 4 4 4 3 3 3 4 5 4 4 4 4 4 5 6 6 7 7 8 8 8 8 9
4 4 4 4 5 5 5 5 4 5 5 5 5 5 5 4 4 4 4 4 4 4 3 3 3 3 4 4 5 5 5 5 5 6 6 7 7 8 8 8 8 9 9
4 4 4 5 5 5 5 5 5 5 4 4 5 5 5 5 5 4 5 5 5 5 4 3 3 3 4 5 6 6 7 6 7 8 8 8 8 9 9 9 10 10 11
5 5 5 6 6 5 5 5 5 5 4 4 5 5 5 5 5 5 6 5 6 5 5 5 4 4 5 6 7 7 8 8 8 9 9 9 10 10 10 11 12 12 13
6 6 6 6 5 6 6 6 5 5 4 5 4 5 6 6 6 6 6 6 7 7 6 6 5 6 6 7 7 8 8 9 9 9 10 10 11 11 11 12 13 13 14
7 8 8 7 6 6 6 6 5 5 5 5 5 6 6 7 7 7 7 8 8 8 8 7 7 8 8 8 8 9 9 10 11 11 11 11 12 12 13 13 14 14 15
8 8 9 8 7 6 6 6 6 6 6 6 7 7 7 8 8 8 8 9 9 9 9 9 9 9 9 9 9 9 10 11 12 12 12 12 13 13 14 14 15 15 16
8 8 8 8 7 6 6 7 7 7 7 8 8 8 8 9 9 9 9 10 9 10 10 10 10 10 9 10 10 10 11 12 13 13 13 14 14 14 14 15 16 17 17
10 10 9 9 8 7 7 7 8 8 8 9 9 9 9 10 10 10 11 11 10 10 11 11 11 11 11 11 11 12 12 13 13 14 14 14 15 16 16 17 17 17 18
11 11 10 9 9 8 8 9 9 10 10 9 10 10 10 11 11 11 12 12 12 12 12 12 13 13 13 12 12 13 14 14 15 15 15 15 16 17 17 18 19 18 18
11 11 11 11 10 10 10 10 10 11 11 10 11 11 11 11 12 12 12 13 13 13 13 13 13 13 13 13 13 14 15 15 15 15 16 16 17 18 18 19 19 19 20
12 11 12 12 12 11 11 11 12 12 12 12 12 11 11 12 12 12 13 13 13 13 14 14 13 14 14 14 14 15 16 16 16 16 17 18 19 19 20 20 20 20 20
12 12 12 12 12 12 12 13 13 13 13 13 13 13 13 13 13 13 14 14 14 15 15 15 14 15 15 16 16 16 17 17 17 17 18 19 20 20 20 21 21 21 20
14 14 14 13 13 13 13 14 14 14 14 14 14 14 14 14 14 15 15 15 15 15 16 16 16 17 17 17 17 17 18 18 18 18 19 19 20 20 21 21 21 21 21
16 16 15 14 14 14 14 14 15 15 15 15 15 14 14 15 16 16 15 16 16 16 17 17 17 17 17 18 18 19 19 19 19 19 19 20 20 20 20 21 21 21 21
18 17 16 16 16 16 16 16 16 16 16 16 15 15 15 16 17 17 17 17 17 17 17 18 18 18 19 19 19 20 20 20 21 21 21 21 21 20 20 20 21 21 21
20 19 18 18 18 18 18 18 18 18 18 17 16 16 17 17 17 18 18 19 18 18 18 18 18 19 19 19 20 21 21 21 22 22 22 22 22 21 21 21 21 21 22
21 21 21 20 20 19 19 19 20 20 20 18 18 18 18 19 18 18 19 19 19 19 19 19 19 20 20 21 22 22 22 22 22 23 22 22 23 22 22 22 23 23 23
22 22 21 21 21 21 21 21 21 21 20 20 20 21 21 21 20 20 20 20 19 19 20 20 21 21 22 23 23 24 24 23 23 23 23 23 23 24 23 23 23 24 24
24 23 23 23 23 24 23 23 23 22 22 23 24 24 24 23 22 22 21 21 21 21 21 22 22 22 23 24 25 25 26 25 25 25 25 25 25 25 25 25 25 25 24
Wind_Direction
351 347 4 358 2 347 316 308 303 339 342 347 342 337 342 325 321 299 307 315 320 311 300 296 297 291 287 286 283 281 281 274 261 260 262 255 260 274 277 270 275 277 275
5 356 355 353 351 346 333 309 302 322 330 339 344 335 344 346 334 324 319 306 301 299 300 309 311 303 298 302 293 284 278 282 272 266 264 259 270 278 279 271 272 273 274
12 354 356 348 338 338 342 318 308 300 309 320 330 330 334 347 352 340 329 324 317 302 296 305 304 304 310 310 297 284 283 289 279 275 276 276 282 282 282 277 274 275 275
6 7 9 356 347 343 341 339 322 321 324 323 331 338 341 340 341 339 343 338 327 316 308 296 293 301 313 309 307 303 290 292 286 283 286 284 292 290 289 286 283 280 278
1 355 357 356 348 339 337 336 332 332 327 312 319 336 342 339 346 350 344 321 318 317 310 303 297 292 308 310 314 306 292 299 299 294 296 293 292 288 291 296 300 290 284
360 352 343 347 346 335 331 326 317 328 333 329 321 327 338 342 337 337 335 328 331 330 328 321 311 304 307 317 314 308 300 299 303 293 303 300 293 294 297 296 298 300 292
354 351 344 343 343 336 328 325 322 324 318 318 325 331 331 329 327 331 334 335 335 325 326 335 336 328 319 323 329 331 324 320 314 305 303 302 301 305 305 304 303 302 301
356 355 9 1 348 336 327 327 326 324 328 321 330 337 340 334 328 337 342 349 343 337 345 345 335 337 331 329 333 331 325 321 314 312 310 306 305 307 306 308 308 305 303
341 345 352 349 339 332 325 324 320 315 325 322 320 330 339 340 349 355 356 355 352 352 341 340 336 333 325 321 320 323 322 317 312 310 312 311 308 306 304 302 302 302 303
328 327 331 333 327 326 323 316 311 309 314 326 322 331 335 334 343 345 341 340 341 338 331 332 334 328 319 316 316 316 315 316 315 313 309 308 307 305 304 302 299 300 302
325 322 321 321 320 315 313 313 311 306 314 324 326 329 331 328 329 336 333 332 333 329 329 329 326 318 318 316 316 317 316 315 317 318 315 311 305 302 302 302 300 300 302
324 319 317 315 313 315 319 321 319 317 316 312 311 317 322 323 322 325 320 319 322 322 322 325 321 320 317 316 316 315 314 314 315 315 314 312 309 304 301 301 300 298 300
319 310 307 308 305 311 316 317 312 307 314 312 306 304 309 313 313 311 310 312 314 315 316 320 320 317 320 318 314 311 309 311 312 311 310 309 308 308 306 304 304 301 303
323 317 312 306 300 301 306 308 306 305 309 309 307 305 306 309 308 307 308 309 310 309 311 313 317 314 311 312 313 309 308 310 310 309 309 307 305 306 306 306 305 302 302
322 321 315 305 299 296 298 300 303 306 306 304 306 304 302 303 305 305 304 305 308 308 308 309 311 309 307 306 307 309 312 309 307 306 306 307 306 305 305 304 304 303 303
318 320 315 308 299 295 297 300 304 306 304 306 307 305 301 300 302 305 304 302 301 304 307 308 307 308 306 305 305 308 309 307 304 304 304 304 303 304 303 304 304 302 300
316 315 309 307 301 298 299 301 305 306 304 304 306 305 302 301 303 304 306 305 302 300 302 304 303 305 304 302 304 305 306 305 305 303 302 303 303 303 303 304 303 301 299
318 318 313 311 306 302 299 302 302 302 302 303 302 303 304 305 305 307 305 302 301 300 300 300 300 300 302 300 302 303 304 303 304 303 301 302 302 302 303 303 303 302 300
312 312 310 309 306 304 301 302 302 301 303 302 299 298 301 304 305 306 304 303 303 301 299 298 297 299 299 298 299 302 304 302 302 303 302 302 301 301 302 302 303 302 299
306 306 307 307 304 303 300 301 299 300 301 301 298 296 298 299 300 302 304 304 304 303 300 298 297 297 298 297 297 299 302 301 301 301 301 302 301 302 302 302 301 301 299
301 301 301 300 301 303 303 299 299 299 298 298 296 296 297 297 299 300 301 301 301 301 300 300 299 298 299 299 298 296 297 298 300 300 300 300 301 301 301 301 301 302 301
298 298 298 296 296 296 299 298 296 295 296 294 293 295 296 296 298 299 299 300 301 301 301 299 301 300 298 297 297 297 297 298 299 299 300 300 300 300 299 298 299 301 302
294 292 293 295 294 294 296 296 294 293 292 292 294 296 296 296 297 298 298 298 297 297 297 297 298 300 299 296 296 297 297 298 298 300 300 300 300 300 298 297 298 300 300
289 288 289 290 291 292 296 296 294 292 290 292 294 294 294 296 296 299 300 299 296 295 294 294 295 297 296 296 295 294 295 296 297 298 298 299 298 298 298 297 297 299 300
286 285 286 287 289 291 293 294 294 291 290 291 292 291 292 292 294 296 297 297 295 293 293 293 293 294 295 294 295 294 295 295 294 294 294 295 296 296 297 297 297 298 299
284 284 284 284 286 287 289 290 289 289 288 288 290 290 291 291 291 293 294 294 294 292 292 292 292 294 295 294 294 295 296 295 294 293 292 293 294 295 295 294 296 297 298
Height
5885 5885 5885 5884 5884 5884 5884 5884 5884 5884 5884 5884 5884 5884 5884 5884 5883 5883 5883 5882 5883 5883 5883 5883 5884 5884 5884 5884 5884 5885 5885 5885 5885 5885 5886 5886 5886 5887 5887 5887 5887 5887 5887
5885 5885 5885 5884 5884 5884 5884 5884 5884 5884 5884 5884 5884 5884 5884 5883 5882 5882 5882 5882 5882 5882 5883 5883 5883 5883 5883 5883 5883 5883 5884 5884 5884 5884 5884 5885 5885 5885 5885 5885 5885 5885 5885
5885 5885 5885 5885 5884 5884 5884 5884 5884 5884 5884 5883 5884 5884 5883 5883 5882 5882 5882 5882 5881 5882 5882 5882 5882 5882 5882 5883 5883 5883 5883 5883 5883 5883 5883 5883 5883 5883 5883 5883 5883 5883 5883
5885 5885 5885 5885 5885 5884 5884 5884 5884 5884 5884 5884 5884 5884 5884 5883 5882 5882 5882 5881 5881 5881 5881 5881 5881 5882 5882 5882 5882 5882 5882 5881 5881 5882 5882 5882 5882 5882 5882 5882 5881 5881 5881
5885 5885 5885 5885 5885 5885 5885 5884 5885 5885 5884 5884 5884 5884 5884 5883 5883 5882 5882 5881 5881 5881 5881 5881 5881 5881 5881 5881 5881 5881 5881 5880 5880 5880 5880 5880 5880 5880 5880 5880 5879 5879 5879
5886 5886 5885 5885 5885 5885 5885 5885 5884 5884 5884 5884 5884 5884 5883 5883 5883 5882 5882 5881 5881 5880 5880 5880 5880 5880 5880 5880 5880 5880 5879 5879 5879 5879 5878 5878 5878 5878 5878 5877 5877 5877 5876
5886 5886 5886 5885 5885 5885 5885 5885 5884 5885 5884 5884 5884 5883 5883 5883 5882 5882 5881 5881 5881 5880 5880 5879 5879 5879 5879 5879 5879 5879 5878 5878 5877 5877 5877 5877 5877 5876 5876 5875 5875 5875 5874
5887 5886 5886 5886 5885 5885 5885 5885 5885 5884 5884 5884 5884 5883 5883 5883 5882 5881 5881 5880 5880 5879 5879 5879 5879 5878 5878 5878 5878 5878 5877 5877 5877 5876 5876 5875 5875 5874 5874 5873 5873 5872 5872
5887 5886 5886 5886 5885 5885 5885 5884 5884 5884 5884 5884 5883 5883 5883 5882 5881 5881 5880 5880 5879 5878 5878 5878 5878 5877 5877 5877 5877 5877 5876 5876 5875 5875 5874 5873 5873 5872 5872 5871 5870 5870 5869
5887 5886 5886 5885 5885 5884 5884 5884 5884 5883 5883 5883 5883 5882 5882 5881 5881 5880 5880 5879 5878 5878 5877 5877 5877 5876 5876 5876 5876 5875 5875 5874 5873 5873 5872 5871 5870 5870 5869 5868 5868 5867 5866
5887 5886 5886 5885 5884 5884 5884 5883 5883 5882 5883 5883 5882 5882 5881 5880 5880 5880 5879 5879 5878 5877 5876 5876 5876 5875 5875 5874 5874 5873 5873 5872 5871 5870 5870 5869 5868 5867 5866 5866 5865 5864 5863
5886 5885 5885 5884 5884 5883 5883 5882 5882 5882 5882 5882 5881 5880 5880 5879 5879 5879 5878 5877 5877 5876 5875 5875 5874 5874 5872 5872 5872 5871 5870 5870 5869 5868 5867 5866 5865 5864 5863 5862 5861 5860 5859
5885 5885 5884 5883 5883 5882 5882 5881 5881 5881 5880 5880 5880 5879 5878 5878 5877 5877 5877 5876 5875 5874 5874 5873 5872 5872 5871 5870 5870 5869 5868 5867 5866 5865 5864 5863 5862 5861 5860 5859 5858 5857 5855
5884 5883 5882 5882 5881 5880 5880 5880 5880 5879 5879 5878 5878 5877 5877 5876 5875 5875 5874 5874 5873 5872 5872 5871 5870 5869 5868 5867 5867 5866 5865 5864 5863 5862 5861 5860 5859 5858 5857 5856 5854 5853 5851
5883 5882 5881 5880 5879 5879 5878 5878 5878 5877 5877 5876 5876 5875 5875 5874 5873 5872 5871 5871 5870 5869 5869 5868 5867 5866 5866 5864 5864 5863 5862 5861 5860 5859 5858 5857 5856 5854 5853 5852 5850 5848 5847
5881 5880 5879 5878 5877 5877 5877 5876 5876 5875 5875 5874 5874 5873 5872 5871 5870 5869 5868 5867 5867 5866 5866 5866 5864 5863 5863 5862 5860 5859 5859 5858 5856 5855 5854 5853 5852 5850 5849 5847 5845 5844 5842
5879 5878 5877 5875 5875 5875 5875 5874 5874 5873 5872 5871 5871 5870 5869 5868 5867 5866 5865 5864 5863 5863 5863 5862 5861 5860 5859 5858 5857 5856 5855 5854 5853 5852 5850 5849 5848 5846 5844 5843 5841 5839 5837
5878 5876 5875 5874 5873 5873 5872 5872 5871 5870 5870 5869 5868 5867 5866 5865 5864 5863 5862 5861 5860 5859 5859 5858 5857 5856 5856 5855 5854 5853 5851 5850 5849 5848 5846 5845 5843 5842 5840 5838 5836 5834 5832
5876 5875 5873 5872 5871 5870 5870 5869 5869 5868 5867 5866 5865 5864 5863 5862 5861 5860 5858 5857 5856 5855 5855 5854 5853 5852 5851 5850 5849 5848 5847 5846 5845 5843 5841 5840 5838 5837 5835 5833 5831 5829 5827
5873 5872 5871 5870 5868 5868 5867 5866 5865 5864 5864 5863 5862 5861 5860 5859 5858 5856 5855 5853 5852 5852 5851 5850 5849 5848 5847 5846 5845 5844 5842 5841 5840 5838 5837 5835 5833 5831 5829 5827 5826 5823 5821
5870 5868 5867 5866 5866 5864 5863 5863 5862 5861 5860 5859 5858 5857 5856 5855 5854 5852 5851 5850 5849 5847 5846 5845 5845 5844 5842 5841 5840 5839 5837 5836 5834 5833 5831 5830 5828 5826 5824 5822 5820 5818 5816
5867 5865 5864 5863 5862 5861 5860 5859 5857 5857 5856 5855 5854 5853 5852 5851 5850 5848 5847 5846 5844 5843 5842 5841 5840 5839 5837 5836 5835 5833 5832 5831 5829 5828 5826 5824 5822 5821 5819 5817 5814 5812 5810
5862 5861 5860 5859 5858 5857 5855 5854 5853 5852 5851 5851 5850 5849 5848 5847 5845 5844 5843 5841 5839 5838 5837 5836 5835 5833 5832 5831 5830 5828 5826 5825 5824 5822 5820 5818 5816 5815 5813 5811 5808 5806 5804
5857 5856 5855 5854 5853 5852 5851 5849 5848 5847 5846 5846 5845 5844 5843 5842 5841 5839 5838 5836 5834 5833 5831 5830 5829 5827 5826 5824 5823 5822 5820 5819 5818 5816 5814 5812 5810 5808 5807 5805 5802 5800 5798
5851 5850 5849 5848 5847 5847 5845 5844 5843 5842 5841 5841 5840 5839 5838 5836 5835 5834 5832 5830 5828 5827 5825 5824 5823 5821 5820 5818 5817 5815 5814 5813 5811 5810 5808 5806 5804 5802 5800 5798 5796 5794 5791
5845 5844 5843 5842 5841 5840 5839 5838 5837 5836 5835 5835 5834 5833 5832 5830 5829 5827 5825 5824 5822 5821 5819 5818 5816 5815 5813 5812 5810 5809 5807 5806 5804 5803 5801 5799 5797 5795 5793 5791 5789 5787 5785